• MPC Preparation (Info)

  • MPEC 2022-P96 : 2022 PE1

    The following Minor Planet Electronic Circular may be linked-to from your own Web pages, but must not otherwise be redistributed electronically.

    A form allowing access to any MPEC is at the bottom of this page.


    Read MPEC 2022-P95 Read MPEC 2022-P97


    M.P.E.C. 2022-P96                                Issued 2022 August 9, 10:33 UT
    
         The Minor Planet Electronic Circulars contain information on unusual
             minor planets and routine data on comets.  They are published
        on behalf of Division F of the International Astronomical Union by the
              Minor Planet Center, Smithsonian Astrophysical Observatory,
                              Cambridge, MA 02138, U.S.A.
    
                 Prepared using the Tamkin Foundation Computer Network
    
                                  MPC@CFA.HARVARD.EDU
                URL https://www.minorplanetcenter.net/    ISSN 1523-6714
    
                                    2022 PE1                                 
    
    
    Observations:
         K22P01E* C2022 08 05.39093220 56 34.828-26 31 52.90         20.63wUEP096F52
         K22P01E  C2022 08 05.41136720 56 24.390-26 30 44.90         20.64wUEP096F52
         K22P01E  C2022 08 05.42155920 56 19.185-26 30 11.05         20.63wUEP096F52
         K22P01E  C2022 08 05.46763520 55 55.682-26 27 35.37         20.15GVEP096F52
         K22P01E  C2022 08 05.46826420 55 55.368-26 27 33.28         20.46GVEP096F52
         K22P01E KC2022 08 05.98630 20 51 51.63 -25 57 39.5          20.6 GVEP096M21
         K22P01E |C2022 08 06.17902 20 50 24.03 -25 46 43.3          21.3 VuEP096807
         K22P01E |C2022 08 06.18390 20 50 21.65 -25 46 26.8          21.1 VuEP096807
         K22P01E |C2022 08 06.18863 20 50 19.34 -25 46 11.1          21.0 VuEP096807
         K22P01E  C2022 08 06.40237620 48 42.423-25 35 10.34         20.92GVEP096F52
         K22P01E  C2022 08 06.40300620 48 42.113-25 35 08.16         20.75GVEP096F52
         K22P01E  C2022 08 08.35958220 34 41.609-23 46 21.00         21.2 GVEP096568
         K22P01E  C2022 08 08.36211620 34 40.505-23 46 12.78         21.2 GVEP096568
         K22P01E |C2022 08 09.15856 20 29 23.55 -23 01 51.1          20.7 GVEP096807
         K22P01E |C2022 08 09.16150 20 29 22.34 -23 01 41.0          20.7 GVEP096807
         K22P01E |C2022 08 09.16444 20 29 21.12 -23 01 31.5          20.7 GVEP096807
    
    Observer details:
    568 Mauna Kea.  Observers J. Fairlamb, Y. Ramanjooloo.  Measurers Y.
        Ramanjooloo, R. Wainscoat.  2.24-m University of Hawaii reflector.
    807 Cerro Tololo Observatory, La Serena.  Observers T. Linder, R. Holmes, L.
        Horn.  0.61-m f/6.5 Dall-Kirkham Astrograph + CCD, 1.00-m f/10.0
        astrograph + CCD.
    F52 Pan-STARRS 2, Haleakala.  Observers J. Bulger, T. Lowe, A. Schultz, I.
        Smith, K. Chambers, T. Dukes.  Measurers K. Chambers, S. Chastel, T. de
        Boer, J. Fairlamb, H. Gao, M. Huber, C.-C. Lin, E. Magnier, Y.
        Ramanjooloo, R. Wainscoat, R. Weryk.  1.8-m Ritchey-Chretien + CCD.
    M21 Schiaparelli Southern Observatory, Hakos.  Observers A. Aletti, F.
        Bellini, L. Buzzi, G. Galli.  Measurer L. Buzzi.  0.36-m f/8.4 reflector +
        CCD.
    
    Orbital elements:
    2022 PE1                                                 Earth MOID = 0.0911 AU
    Epoch 2022 Aug. 9.0 TT = JDT 2459800.5                  MPC                     
    M 145.96954              (2000.0)            P               Q                  
    n   1.11629183     Peri.  198.33580     -0.90684712     -0.40267298             
    a   0.9203455      Node   317.23380     +0.40597860     -0.75531514             
    e   0.2654315      Incl.   10.55925     +0.11317986     -0.51706239             
    P   0.88           H   24.64          G   0.15           U   6                  
    Residuals in seconds of arc
    220805 F52  0.1+  0.0     220806 807  0.1-  0.1-    220808 568  0.0   0.0
    220805 F52  0.0   0.1+    220806 807  0.0   0.0     220809 807  0.1-  0.3-
    220805 F52  0.1+  0.1-    220806 807  0.1+  0.1-    220809 807  0.0   0.2+
    220805 F52  0.1+  0.0     220806 F52  0.2-  0.1+    220809 807  0.0   0.2+
    220805 F52  0.2+  0.1-    220806 F52  0.2-  0.1+
    220805 M21  0.8+  0.3+    220808 568  0.0   0.0
    
    Ephemeris:
    2022 PE1                 a,e,i = 0.92, 0.27, 11                  q = 0.6761
    Date    TT    R. A. (2000) Decl.     Delta      r    Elong.  Phase     V
    2022 07 10    00 59 59.3 -36 21 45   0.1309  1.0602   106.0    67.2    22.7
    ...
    2022 07 25    22 47 47.7 -35 12 49   0.1091  1.1052   143.3    33.4    21.4
    ...
    2022 08 02    21 25 53.6 -29 37 21   0.1125  1.1241   165.3    13.2    20.9
    ...
    2022 08 08    20 37 08.0 -24 05 24   0.1240  1.1360   169.0     9.8    21.0
    2022 08 09    20 30 25.3 -23 10 38   0.1266  1.1378   167.4    11.2    21.1
    2022 08 10    20 24 06.2 -22 16 52   0.1294  1.1395   165.7    12.7    21.2
    ...
    2022 08 16    19 53 47.1 -17 25 15   0.1492  1.1487   154.1    22.7    21.9
    ...
    2022 08 24    19 29 27.0 -12 32 36   0.1820  1.1577   140.7    33.6    22.7
    ...
    2022 09 08    19 14 01.0 -07 10 35   0.2541  1.1646   122.7    46.7    23.8
    
    A. U. Tomatic                (C) Copyright 2022 MPC           M.P.E.C. 2022-P96
    


    Read MPEC 2022-P95 Read MPEC 2022-P97


    MPEC number:

    Enter an MPEC number in one of the following forms:

    • 1997-B01 (the full form)
    • J97B01 (the packed version of the full form)
    • B01 (the abbreviated form)